Flag for U.S.A. Weather past 2 weeks in Inverness, Florida, U.S.A.

Now
79 °F

Warm.


Feels Like: 83 °F
Forecast: 70 / 80 °F
Wind: 5 mph from North

Location: The Villages

Current Time: Apr 26, 2015 at 10:43:55 PM

Latest Report: Apr 26, 2015 at 10:15 PM


Visibility: 9 mi

Pressure: 29.66 "Hg

Humidity: 100%

Dew point: 79 °F

Location of InvernessLocation

Historic Weather in Inverness — Graph

°F

Inverness temperature yesterday

Maximum temperature yesterday: 88 °F (at 2:15 PM)
Minimum temperature yesterday: 66 °F (at 3:55 AM)
Average temperature yesterday: 77 °F

Past Weeks' High & Low Weather Summary

 TemperatureHumidityPressure
High90 °F (Apr 19, 3:15 PM)100% (Apr 12, 1:35 AM)30.09 "Hg (Apr 12, 1:35 AM)
Low63 °F (Apr 22, 6:15 AM)43% (Apr 22, 4:55 PM)29.63 "Hg (Apr 26, 4:55 PM)
Average75 °F91%29.90 "Hg
* Reported Apr 11 9:15 PM — Apr 26 9:15 PM, Inverness, Weather by CustomWeather, © 2015

Note: Actual official high and low records may vary slightly from our data, if they occured in-between our weather recording intervals... More about our weather records

Advertising

Inverness weather history for previous 24 hours

 ConditionsComfort  
Time TempWeatherWind HumidityBarometerVisibility
9:15 PM
Sun, Apr 26
79 °FFog.8 mph100%29.65 "Hg6 mi
8:55 PM81 °FWarm.9 mph94%29.65 "Hg10 mi
8:35 PM81 °FWarm.7 mph94%29.64 "Hg10 mi
8:15 PM81 °FWarm.8 mph94%29.65 "Hg7 mi
7:55 PM81 °FWarm.No wind94%29.65 "Hg10 mi
7:35 PM82 °FWarm.9 mph84%29.64 "Hg9 mi
7:15 PM82 °FWarm.10 mph89%29.64 "Hg9 mi
6:55 PM82 °FWarm.7 mph89%29.63 "Hg10 mi
6:35 PM82 °FWarm.7 mph89%29.64 "Hg7 mi
5:55 PM84 °FWarm.7 mph84%29.63 "Hg9 mi
5:15 PM84 °FWarm.13 mph84%29.64 "Hg7 mi
4:55 PM84 °FWarm.13 mph84%29.63 "HgN/A
4:35 PM84 °FHaze.12 mph84%29.64 "Hg6 mi
4:15 PM84 °FWarm.13 mph84%29.64 "Hg9 mi
3:55 PM86 °FWarm.9 mph79%29.64 "Hg10 mi
3:15 PM88 °FWarm.16 mph75%29.65 "Hg9 mi
2:55 PM86 °FWarm.14 mph79%29.65 "Hg10 mi
2:35 PM86 °FWarm.15 mph79%29.66 "Hg7 mi
2:15 PM86 °FWarm.13 mph79%29.66 "Hg9 mi
1:55 PM86 °FWarm.14 mph79%29.67 "Hg10 mi
1:35 PM84 °FHaze.10 mph84%29.67 "Hg6 mi
1:15 PM82 °FWarm.10 mph89%29.68 "Hg9 mi
12:55 PM82 °FWarm.12 mph89%29.68 "Hg10 mi
12:35 PM82 °FWarm.9 mph89%29.70 "Hg10 mi
12:15 PM84 °FHaze.13 mph84%29.70 "Hg6 mi
11:55 AM84 °FWarm.16 mph84%29.70 "Hg10 mi
11:35 AM82 °FWarm.15 mph89%29.71 "Hg10 mi
11:15 AM82 °FWarm.9 mph89%29.71 "Hg8 mi
10:55 AM84 °FWarm.18 mph84%29.71 "Hg10 mi
10:35 AM82 °FHaze.14 mph89%29.71 "Hg5 mi
10:15 AM82 °FWarm.12 mph89%29.70 "Hg10 mi
9:55 AM82 °FFog.12 mph89%29.70 "Hg6 mi
9:35 AM82 °FWarm.12 mph89%29.70 "Hg10 mi
9:15 AM81 °FWarm.12 mph94%29.70 "Hg10 mi
8:55 AM81 °FWarm.12 mph94%29.70 "Hg10 mi
8:35 AM81 °FWarm.8 mph100%29.70 "Hg8 mi
8:15 AM79 °FWarm.8 mph100%29.70 "Hg10 mi
7:55 AM77 °FFog.6 mph100%29.70 "Hg6 mi
7:35 AM77 °FWarm.No wind100%29.69 "Hg7 mi
7:15 AM75 °FMild.3 mph100%29.68 "Hg7 mi
6:55 AM75 °FFog.3 mph100%29.68 "Hg5 mi
6:35 AM75 °FMild.3 mph100%29.68 "Hg9 mi
6:15 AM75 °FMild.No wind100%29.67 "Hg9 mi
5:55 AM77 °FWarm.3 mph100%29.66 "Hg9 mi
5:15 AM77 °FFog.6 mph100%29.66 "Hg5 mi
4:55 AM77 °FWarm.7 mph100%29.65 "Hg9 mi
4:15 AM77 °FWarm.6 mph100%29.66 "Hg7 mi
3:55 AM77 °FFog.6 mph100%29.66 "Hg6 mi
3:35 AM77 °FFog.12 mph100%29.66 "Hg5 mi
3:15 AM77 °FWarm.12 mph100%29.66 "Hg9 mi
2:55 AM75 °FMild.8 mph100%29.67 "Hg9 mi
2:35 AM77 °FWarm.9 mph100%29.67 "Hg9 mi
2:15 AM77 °FFog.8 mph100%29.67 "Hg6 mi
1:55 AM77 °FWarm.9 mph100%29.67 "Hg8 mi
1:35 AM77 °FWarm.10 mph100%29.67 "Hg8 mi
1:15 AM77 °FFog.8 mph100%29.69 "Hg6 mi
12:55 AM77 °FWarm.9 mph100%29.70 "Hg9 mi
12:35 AM77 °FWarm.6 mph100%29.69 "Hg10 mi
12:15 AM77 °FWarm.7 mph100%29.72 "Hg9 mi
11:15 PM
Sat, Apr 25
77 °FWarm.3 mph100%29.77 "Hg10 mi
10:55 PM77 °FWarm.6 mph100%29.77 "Hg10 mi
10:35 PM77 °FFog.6 mph100%29.76 "Hg6 mi
10:15 PM77 °FWarm.7 mph100%29.76 "Hg9 mi
Weather by CustomWeather, © 2015

See weather overviewHow to use our weather pages